DateTimeUTC,F1_A11,F1_S11,BsB_S11,BsG_S11,BsR_S11,BbsB_S11,BbsG_S11,BbsR_S11,BaB_A11,BaG_A11,BaR_A11,Tu_S11,T_S11,Uu_S11,U_S11,P_S11,T1_A11
2021-06-08T22:00:00Z,00000200,20000000,,,,,,,-000.48,-000.68,0000.25,18.3,25.2,04.9,03.2,0669.5,31.0
2021-06-08T22:01:00Z,00000200,20000000,,,,,,,0000.51,0000.39,-000.03,18.2,25.2,04.9,03.2,0669.5,31.0
2021-06-08T22:02:00Z,00000200,20000000,,,,,,,-000.06,-000.31,-000.22,18.2,25.2,04.9,03.2,0669.5,31.0
2021-06-08T22:03:00Z,00000200,60000000,,,,,,,-000.16,-000.12,0000.18,18.2,25.2,04.9,03.2,0669.5,31.0
2021-06-08T22:04:00Z,00000200,40000000,0000.11,0000.42,0000.36,0000.42,0000.04,-000.02,0000.42,0000.22,0000.04,18.4,25.0,04.8,03.2,0670.4,31.0
2021-06-08T22:05:00Z,00000200,00000000,0000.45,0000.55,0000.40,0000.30,0000.04,0000.37,0000.10,0000.52,0000.43,18.4,25.0,04.8,03.2,0670.5,31.0
2021-06-08T22:06:00Z,00000200,00000000,0000.39,0000.57,0000.16,0000.47,-000.06,0000.29,0000.08,-000.04,-000.26,18.4,24.9,04.8,03.2,0670.5,31.0
2021-06-08T22:07:00Z,00000200,00000000,0001.00,0000.56,0000.25,0000.48,-000.05,-000.01,0000.38,0000.34,0000.44,18.4,25.0,04.8,03.2,0670.5,31.0
2021-06-08T22:08:00Z,00000200,00000000,0000.36,0000.33,0000.33,-000.03,0000.09,0000.26,-000.02,0000.08,-000.25,18.4,24.9,04.7,03.1,0670.5,31.0
2021-06-08T22:09:00Z,00000200,00000000,0000.66,0000.44,0000.19,-000.24,0000.05,-000.03,0000.32,-000.39,-000.01,18.4,24.9,04.6,03.1,0670.4,31.1
2021-06-08T22:10:00Z,00000200,00000000,0000.61,0000.38,0000.42,0000.28,0000.14,0000.33,-000.09,0000.17,0000.45,18.4,24.9,04.5,03.1,0670.5,31.0
2021-06-08T22:11:00Z,00000200,00000000,0001.01,0000.42,0000.25,0000.69,-000.02,-000.10,0000.25,0000.50,0000.22,18.4,24.9,04.6,03.1,0670.5,31.0
2021-06-08T22:12:00Z,00000200,00000000,0000.69,0000.67,0000.14,-000.44,0000.04,0000.14,0000.15,0000.22,0000.07,18.4,24.8,04.6,03.1,0670.5,31.0
2021-06-08T22:13:00Z,00000200,00000000,0000.69,0000.36,0000.35,0000.29,0000.13,0000.02,0000.39,0000.41,0000.06,18.4,24.9,04.6,03.1,0670.5,31.0
2021-06-08T22:14:00Z,00000200,00000000,0000.71,0000.27,0000.09,0000.30,0000.15,0000.24,0000.22,0000.07,-000.00,18.4,24.8,04.6,03.1,0670.5,31.0
2021-06-08T22:15:00Z,00000200,00000000,0000.46,0000.72,0000.16,0000.19,-000.06,-000.11,0000.24,0000.05,0000.27,18.4,24.9,04.6,03.1,0670.5,31.0
2021-06-08T22:16:00Z,00000200,00000000,0000.26,0000.47,0000.19,0000.17,-000.13,0000.02,0000.02,0000.20,0000.25,18.4,24.9,04.6,03.1,0670.5,31.0
2021-06-08T22:17:00Z,00000200,00000000,0000.33,0000.54,0000.50,0000.43,0000.35,0000.52,0000.13,-000.13,0000.11,18.4,24.9,04.5,03.0,0670.5,31.0
2021-06-08T22:18:00Z,00000200,00000000,-000.30,0000.38,0000.69,0000.45,0000.16,0000.31,-000.12,0000.24,-000.04,18.4,24.9,04.4,03.0,0670.5,31.0
2021-06-08T22:19:00Z,00000200,00000000,0000.62,0000.64,0000.24,0000.12,-000.06,-000.01,0000.68,0000.21,0000.03,18.4,24.9,04.4,02.9,0670.5,31.0
2021-06-08T22:20:00Z,00000200,00000000,0001.06,0000.32,0000.36,0000.41,-000.01,0000.25,0000.19,0000.35,0000.38,18.4,24.8,04.5,03.0,0670.5,31.0
2021-06-08T22:21:00Z,00000200,00000000,0000.19,0000.61,0000.30,0000.11,0000.17,0000.31,-000.35,-000.13,0000.08,18.3,24.8,04.4,03.0,0670.5,31.0
2021-06-08T22:22:00Z,00000200,00000000,0000.15,0000.34,0000.13,0000.72,0000.25,-000.10,0000.68,0000.43,0000.03,18.3,24.8,04.4,02.9,0670.5,31.0
2021-06-08T22:23:00Z,00000200,00000000,0000.32,0000.24,0000.18,0000.34,0000.02,-000.05,0000.04,0000.10,0000.17,18.3,24.8,04.3,02.9,0670.5,31.0
2021-06-08T22:24:00Z,00000200,00000000,0000.44,0000.46,0000.18,0000.02,-000.08,0000.16,0000.36,0000.20,0000.15,18.3,24.8,04.3,02.9,0670.5,31.0
2021-06-08T22:25:00Z,00000200,00000000,0000.39,0000.66,0000.49,-000.09,-000.02,0000.48,0000.18,0000.03,-000.16,18.3,24.8,04.3,02.9,0670.5,31.0
2021-06-08T22:26:00Z,00000200,00000000,0000.18,0000.51,0000.60,-000.04,0000.19,0000.03,-000.26,0000.18,0000.19,18.3,24.8,04.3,02.9,0670.5,31.0
2021-06-08T22:27:00Z,00000200,00000000,0000.18,0000.44,-000.04,0000.23,0000.09,-000.11,0000.21,0000.15,0000.03,18.3,24.8,04.2,02.8,0670.5,31.0
2021-06-08T22:28:00Z,00000200,00000000,0000.26,0000.42,0000.12,0000.22,-000.06,0000.19,0000.56,-000.02,0000.26,18.3,24.8,04.2,02.8,0670.5,31.0
2021-06-08T22:29:00Z,00000200,00000000,0001.04,0000.21,0000.30,0000.13,-000.21,-000.01,-000.13,-000.01,0000.06,18.3,24.7,04.1,02.8,0670.5,31.1
2021-06-08T22:30:00Z,00000200,00000000,0000.69,0000.32,0000.33,0000.45,0000.14,0000.47,0000.35,0001.01,0000.24,18.3,24.8,04.1,02.7,0670.5,31.0
2021-06-08T22:31:00Z,00000200,00000000,-000.01,0000.53,0000.48,0000.25,0000.34,0000.38,0000.10,-000.55,-000.03,18.3,24.8,04.2,02.8,0670.5,31.0
2021-06-08T22:32:00Z,00000200,00000000,0001.02,0000.48,0000.25,0000.30,0000.05,0000.07,-000.12,0000.51,0000.25,18.3,24.8,04.2,02.8,0670.5,31.0
2021-06-08T22:33:00Z,00000200,00000000,0000.83,0000.50,0000.13,0000.26,-000.10,0000.17,0000.35,0000.17,0000.11,18.3,24.8,04.1,02.8,0670.4,31.0
2021-06-08T22:34:00Z,00000200,00000000,0000.26,0000.22,0000.10,0000.09,0000.03,0000.21,0000.52,0000.05,0000.32,18.3,24.7,04.1,02.8,0670.4,31.0
2021-06-08T22:35:00Z,00000200,00000000,0000.23,0000.40,0000.13,-000.37,0000.29,0000.09,-000.14,0000.02,-000.09,18.3,24.7,04.0,02.7,0670.4,31.0
2021-06-08T22:36:00Z,00000200,00000000,0000.66,0000.48,0000.42,-000.01,-000.09,0000.30,0000.36,0000.76,0000.03,18.3,24.7,04.1,02.7,0670.4,31.0
2021-06-08T22:37:00Z,00000200,00000000,0000.21,0000.28,0000.33,0000.20,0000.12,0000.05,0000.08,-000.32,0000.62,18.3,24.7,04.1,02.8,0670.4,31.0
2021-06-08T22:38:00Z,00000200,00000000,0000.49,0000.28,0000.28,-000.05,-000.14,0000.07,0000.17,0000.51,-000.22,18.3,24.7,04.1,02.7,0670.4,31.0
2021-06-08T22:39:00Z,00000200,00000000,0000.29,0000.44,0000.30,0000.15,0000.15,-000.18,0000.60,0000.05,0000.31,18.2,24.7,04.1,02.7,0670.3,31.0
2021-06-08T22:40:00Z,00000200,00000000,-000.50,0000.32,0000.18,0000.51,0000.12,0000.11,0000.12,0000.21,-000.24,18.2,24.7,04.2,02.8,0670.3,31.0
2021-06-08T22:41:00Z,00000200,00000000,0000.21,0000.20,0000.17,0000.54,0000.05,-000.12,0000.33,0000.06,0000.60,18.2,24.7,04.1,02.8,0670.3,31.0
2021-06-08T22:42:00Z,00000200,00000000,0000.58,0000.28,0000.71,-000.14,0000.06,-000.31,-000.34,-000.05,0000.08,18.2,24.7,04.0,02.7,0670.3,31.0
2021-06-08T22:43:00Z,00000200,00000000,0000.70,0000.51,0000.27,0000.09,0000.08,0000.43,0000.45,0000.30,-000.29,18.2,24.7,04.1,02.8,0670.3,31.0
2021-06-08T22:44:00Z,00000200,00000000,0000.56,0000.09,-000.03,0000.09,0000.12,0000.09,0000.12,0000.23,0000.46,18.2,24.7,04.0,02.7,0670.3,31.0
2021-06-08T22:45:00Z,00000200,00000000,0000.39,-000.02,0000.28,0000.17,0000.06,0000.21,-000.26,-000.22,-000.12,18.2,24.7,04.0,02.7,0670.3,31.0
2021-06-08T22:46:00Z,00000200,00000000,0000.47,-000.17,0000.36,0000.14,-000.08,0000.07,0000.23,0000.32,0000.13,18.2,24.7,04.0,02.7,0670.3,31.0
2021-06-08T22:47:00Z,00000200,00000000,0000.01,0000.21,0000.35,-000.53,-000.05,0000.12,0000.12,-000.02,0000.19,18.2,24.6,03.9,02.6,0670.3,31.0
2021-06-08T22:48:00Z,00000200,00000000,0000.24,0000.25,-000.04,0000.11,-000.17,0000.11,0000.21,-000.06,-000.02,18.2,24.6,03.9,02.6,0670.3,31.0
2021-06-08T22:49:00Z,00000200,00000000,0000.28,0000.57,-000.10,-000.37,0000.13,0000.30,0000.24,0000.60,0000.21,18.2,24.6,03.9,02.7,0670.3,31.0
2021-06-08T22:50:00Z,00000200,00000000,0000.29,0000.23,0000.24,-000.03,-000.08,0000.17,-000.25,-000.39,-000.15,18.2,24.6,03.9,02.7,0670.3,31.0
2021-06-08T22:51:00Z,00000200,00000000,0000.76,0000.54,-000.20,0000.06,0000.13,0000.21,-000.19,-000.07,-000.08,18.1,24.6,03.9,02.6,0670.3,31.0
2021-06-08T22:52:00Z,00000200,00000000,0000.75,0000.22,0000.10,0000.51,0000.14,-000.04,0000.69,0000.36,0000.25,18.1,24.6,03.7,02.5,0670.3,31.0
2021-06-08T22:53:00Z,00000200,00000000,0000.38,-000.11,0000.14,0000.09,-000.08,0000.16,-000.42,-000.13,-000.28,18.1,24.6,03.8,02.6,0670.3,31.0
2021-06-08T22:54:00Z,00000200,00000000,0000.26,0000.34,0000.28,0000.51,-000.00,0000.05,0000.12,0000.12,0000.44,18.1,24.6,03.7,02.5,0670.3,31.0
2021-06-08T22:55:00Z,00000200,00000000,0000.75,0000.26,0000.10,0000.59,-000.17,0000.07,0000.03,-000.42,-000.32,18.1,24.6,03.6,02.4,0670.4,31.0
2021-06-08T22:56:00Z,00000200,00000000,0000.16,-000.14,0000.12,-000.12,-000.04,0000.13,0000.37,0000.90,0000.53,18.1,24.6,03.7,02.5,0670.4,31.0
2021-06-08T22:57:00Z,00000200,40000000,,,,,,,0000.69,0000.61,0000.35,18.2,24.6,04.1,02.8,0670.4,31.0
2021-06-08T22:58:00Z,00000200,60000000,,,,,,,-000.61,-000.59,-000.25,17.8,24.8,03.9,02.5,0669.4,31.0
2021-06-08T22:59:00Z,00000200,20000000,,,,,,,-000.13,-000.07,-000.14,17.8,24.9,03.7,02.4,0669.4,31.0
